Flag for Australia Weather past 2 weeks in Hobart, Tasmania, Australia

Now
75 °F

Sunny.


Feels Like: 76 °F
Forecast: 48 / 65 °F
Wind: 13 mph from Northwest

Location: Hobart Airport

Current Time: Sep 23, 2014 at 2:36:35 PM

Latest Report: Sep 23, 2014 at 2:00 PM


Visibility: 10 mi

Pressure: 30.12 "Hg

Humidity: 18%

Dew point: 28 °F

Location of HobartLocation

Historic Weather in Hobart — Graph

°F

Hobart temperature yesterday

Maximum temperature yesterday: 72 °F (at 2:30 PM)
Minimum temperature yesterday: 43 °F (at 5:30 AM)
Average temperature yesterday: 56 °F

Past Weeks' High & Low Weather Summary

 TemperatureHumidityPressure
High73 °F (Sep 23, 1:00 PM)93% (Sep 16, 1:00 AM)30.33 "Hg (Sep 16, 1:00 AM)
Low37 °F (Sep 16, 1:00 AM)20% (Sep 23, 1:00 PM)29.36 "Hg (Sep 10, 11:00 PM)
Average53 °F59%29.93 "Hg
* Reported Sep 8 1:00 PM — Sep 23 1:00 PM, Hobart, Weather by CustomWeather, © 2014

Note: Actual official high and low records may vary slightly from our data, if they occured in-between our weather recording intervals... More about our weather records

Advertising

Hobart weather history for previous 24 hours

 ConditionsComfort  
Time TempWeatherWind HumidityBarometerVisibility
1:00 PM
Sep 23
73 °FSunny.14 mph20%30.12 "Hg10 mi
12:30 PM72 °FSunny.13 mph22%30.15 "Hg10 mi
12:00 PM70 °FSunny.15 mph23%30.15 "Hg10 mi
11:30 AM68 °FSunny.13 mph26%30.18 "Hg10 mi
11:00 AM68 °FSunny.15 mph21%30.18 "Hg10 mi
10:30 AM64 °FSunny.15 mph32%30.18 "Hg10 mi
10:00 AM64 °FSunny.13 mph30%30.21 "Hg10 mi
9:30 AM61 °FSunny.14 mph31%30.21 "Hg10 mi
9:00 AM59 °FSunny.13 mph36%30.21 "Hg10 mi
8:30 AM57 °FSunny.14 mph39%30.24 "Hg10 mi
8:00 AM54 °FSunny.9 mph54%30.24 "Hg10 mi
7:30 AM52 °FSunny.12 mph58%30.21 "Hg10 mi
7:00 AM50 °FSunny.9 mph62%30.21 "Hg10 mi
6:30 AM46 °FSunny.12 mph71%30.21 "Hg10 mi
6:00 AM46 °FSunny.13 mph71%30.21 "Hg10 mi
5:30 AM48 °FSunny.14 mph66%30.21 "Hg10 mi
5:00 AM48 °FSunny.10 mph71%30.21 "Hg10 mi
4:30 AM46 °FClear.12 mph82%30.21 "Hg10 mi
4:00 AM48 °FClear.13 mph76%30.21 "Hg10 mi
3:00 AM50 °FClear.13 mph76%30.21 "Hg10 mi
2:30 AM50 °FClear.12 mph76%30.21 "Hg10 mi
2:00 AM52 °FClear.9 mph77%30.21 "Hg10 mi
1:30 AM52 °FClear.9 mph77%30.24 "Hg10 mi
1:00 AM52 °FClear.14 mph77%30.24 "Hg10 mi
12:30 AM54 °FClear.9 mph72%30.24 "Hg10 mi
12:00 AM54 °FClear.7 mph77%30.24 "Hg10 mi
11:30 PM
Sep 22
54 °FClear.13 mph72%30.24 "Hg10 mi
11:00 PM52 °FClear.8 mph77%30.21 "Hg10 mi
10:30 PM54 °FPassing clouds.5 mph72%30.21 "HgN/A
10:00 PM48 °FClear.3 mph87%30.21 "Hg10 mi
9:30 PM48 °FClear.No wind87%30.21 "Hg10 mi
9:00 PM52 °FClear.No wind88%30.21 "Hg10 mi
8:30 PM50 °FClear.No wind88%30.21 "Hg10 mi
8:00 PM52 °FClear.2 mph88%30.21 "Hg10 mi
7:30 PM54 °FClear.No wind88%30.21 "Hg10 mi
7:00 PM54 °FPassing clouds.7 mph88%30.18 "HgN/A
6:30 PM55 °FPassing clouds.5 mph82%30.18 "HgN/A
6:00 PM57 °FClear.12 mph77%30.18 "Hg10 mi
5:30 PM59 °FClear.13 mph72%30.15 "Hg10 mi
5:00 PM63 °FSunny.12 mph64%30.15 "Hg10 mi
4:30 PM66 °FSunny.10 mph49%30.15 "Hg10 mi
4:00 PM64 °FSunny.10 mph56%30.15 "Hg10 mi
3:30 PM66 °FSunny.10 mph49%30.15 "Hg10 mi
3:00 PM68 °FSunny.10 mph43%30.15 "Hg10 mi
2:30 PM72 °FSunny.9 mph41%30.15 "Hg10 mi
2:00 PM70 °FSunny.9 mph46%30.18 "Hg10 mi
Weather by CustomWeather, © 2014

See weather overviewHow to use our weather pages